CZ-3B DEB, 40191

Orbit data source: Space-Track

CZ-3B DEB, 40191 is space debris in HEO originally from a launch on Mon, 19 Dec 2011 UTC launched from the Xichang Space Center, China (XSC). Debris objects in space refer to the collection of defunct objects orbiting the Earth. Examples of debris include non-operational satellites, rocket bodies, and fragments generated from explosions, collisions, or faulty payload assembly.

Loading next visibility...
Identifier
40191, 2011-077Q
Orbit
HEO
Country
Flag of CNCN / PRC
Related business
Manufacturer
CALT
Mission
Spacecraft
Bus & Motor
Unknown
Mass
Unknown
Launch date (UTC)
2011-12-19 (14 years ago)
Launch vehicle
Unknown
Launch site
Xichang Space Center, China (XSC)
Object type
Payload
Rocket body
Debris
Shape & HBR
Unknown shape, 0.2 m
Radar Cross Section
Medium (>0.1 m² and <1 m²)

Expand to show TLE details & history
Last TLE update: 6 days ago

TLE from 6 days ago
0 CZ-3B DEB
1 40191U 11077Q   26028.98961604  .00000241  00000-0  68930-2 0  9997
2 40191  26.7186 290.3095 7425387 139.1912 310.8244  1.95022002 77071
Epoch: 2026-01-28T23:45Z
TLE epoch observation values (Epoch: 2026-01-28T23:45:02.825Z)
Latitude
0.00004°
Longitude
165.84381°
Altitude
21,355.502 km
Speed
3.744 km/s
True Right ascension
19h 21m 25s
True Declination
0° 00' 00"
Sunlit
Object was in daylight at epoch
Visualization orbit readout
Latitude
Unknown
Longitude
Unknown
Altitude
Unknown
Speed
Unknown
Apparent Right ascension
Unknown
Apparent Declination
Unknown
Sunlit
N/A
Visualization observer readout
Local Sidereal Time
17:02:28
Azimuth
Unknown
Elevation
Unknown
Doppler factor
Unknown
Orbital elements
Apogee altitude
40,783.554 km
Perigee altitude
590.035 km
Semi-major axis
27,064.932 km
Eccentricity
0.74254
Inclination
26.7186°
RAAN
290.3095°
Arg. of periapsis
139.1912°
True anomaly
220.9248°
Mean anomaly
310.8244°
Eccentric anomaly
268.29882°
Mean motion
0.48745 °/min
Orbital period
738.53 mins
BSTAR
0.006893
Loading maneuver chart data...
Computing Atmospheric mass density...
Loading historical data...
Loading historical data...
Loading historical data...
Loading historical data...
Loading historical data...
Loading historical data...
Loading historical data...

Documentation

Showing up to 5 results
|